Content
SEND FEEDBACK

Daily
Averages
Monthly
Summary
United States of America

MAURICEVILLE, TEXAS


Home > North America > United States > Texas
Elevation: 20 feet     Latitude: 30 14N     Longitude: 093 44W

WEATHER
 
SELECT A DAY
Number of Records: 108,109;   Date Range: 8/25/05 - 7/27/14
 
SHARE

PRINT THIS DATA

[ ← Previous Day ]
WEATHER ALMANAC - APRIL 26, 2013
[ Next Day → ]
[ °C ]   °F
Weather ElementAverageHighLow
Temperature70.4 °F76.5 °F (2:55 pm)64 °F (4:55 am)
Dewpoint63.2 °F68.4 °F (11:55 pm)52.5 °F (1:15 am)
Humidity78.4 %94 % (10:55 pm)61 % (12:55 am)
Barometer30.20 in30.25 in (11:35 am)30.14 in (11:35 pm)
Wind Speed3 mph13.8 mph (2:15 pm)
Wind Gust18.4 mph (1:15 pm)
Weather ElementAverage
Visibility9.8 mi
Wind DirectionENE (52.7 °)

Weather ElementTotal
Precipitation---
Cooling Degree Days5.3 (Base 65)
Growing Degree Days20.3 (Base 50)
Averaged from 70 records on April 26, 2013
WEATHER CONDITIONS BREAKOUT
WIND DIRECTION BREAKOUT
WEATHER BY HOUR - APRIL 26, 2013
[ °C ]   °F
Local TimeTemperatureDewpointHumidityBarometerVisibilityWind DirectionWind SpeedGust SpeedPrecipitationEventsConditions
12:35 AM66.2 °F52.7 °F62 %30.24 in10.0 miCalmOvercast
12:55 AM66.4 °F52.7 °F61 %30.24 in10.0 miCalmOvercast
1:15 AM66.2 °F52.5 °F61 %30.24 in10.0 miCalmOvercast
1:35 AM66.2 °F52.5 °F61 %30.24 in10.0 miCalmOvercast
2:15 AM65.8 °F53.1 °F63 %30.23 in10.0 miESE (110°)8.1 mphOvercast
2:35 AM66.0 °F53.6 °F64 %30.22 in10.0 miCalmOvercast
2:55 AM66.0 °F54.1 °F65 %30.21 in10.0 miCalmOvercast
3:15 AM65.5 °F54.5 °F68 %30.21 in10.0 miCalmOvercast
3:35 AM65.5 °F54.9 °F68 %30.20 in10.0 miCalmOvercast
3:55 AM65.3 °F55.4 °F70 %30.19 in10.0 miCalmOvercast
4:15 AM64.8 °F55.4 °F72 %30.19 in10.0 miCalmOvercast
4:35 AM64.2 °F55.8 °F74 %30.18 in10.0 miCalmMostly Cloudy
4:55 AM64.0 °F56.3 °F76 %30.18 in10.0 miCalmMostly Cloudy
5:15 AM64.4 °F57.0 °F77 %30.18 in10.0 miCalmOvercast
5:35 AM65.3 °F58.5 °F78 %30.18 in10.0 miCalmOvercast
5:55 AM65.3 °F59.2 °F81 %30.18 in10.0 miCalmOvercast
6:15 AM65.5 °F60.4 °F84 %30.19 in10.0 miCalmOvercast
6:35 AM65.7 °F61.0 °F85 %30.20 in10.0 miCalmOvercast
6:55 AM65.5 °F61.0 °F85 %30.20 in10.0 miCalmOvercast
7:15 AM66.2 °F61.7 °F85 %30.21 in10.0 miCalmOvercast
7:35 AM66.6 °F61.9 °F85 %30.21 in10.0 miCalmOvercast
7:55 AM66.6 °F62.1 °F85 %30.21 in10.0 miCalmOvercast
8:15 AM66.7 °F62.1 °F85 %30.21 in10.0 miCalmOvercast
8:35 AM67.1 °F62.2 °F84 %30.22 in10.0 miCalmOvercast
8:55 AM68.7 °F63.3 °F83 %30.22 in10.0 miCalmOvercast
9:15 AM70.0 °F64.0 °F81 %30.23 in10.0 miCalmOvercast
9:35 AM70.0 °F63.5 °F80 %30.23 in10.0 miCalmOvercast
9:55 AM69.8 °F63.5 °F80 %30.23 in10.0 miCalmOvercast
10:15 AM70.9 °F64.4 °F80 %30.23 in10.0 miSE (130°)5.8 mphOvercast
10:35 AM71.8 °F64.8 °F78 %30.23 in10.0 miCalmOvercast
10:55 AM72.3 °F64.8 °F77 %30.23 in10.0 miEast (90°)4.6 mphOvercast
11:15 AM72.9 °F64.9 °F76 %30.24 in10.0 miEast (90°)4.6 mphOvercast
11:35 AM73.8 °F65.3 °F75 %30.25 in10.0 miEast (100°)4.6 mphOvercast
11:55 AM74.3 °F65.5 °F74 %30.25 in10.0 miCalmOvercast
12:15 PM75.6 °F65.8 °F72 %30.24 in10.0 miSSE (150°)9.2 mphOvercast
12:35 PM75.6 °F66.0 °F72 %30.23 in10.0 miSSE (160°)10.4 mph17.3 mphOvercast
12:55 PM75.0 °F66.0 °F73 %30.22 in10.0 miSSE (150°)10.4 mph17.3 mphOvercast
1:15 PM75.4 °F66.0 °F73 %30.22 in10.0 miSouth (170°)8.1 mph18.4 mphOvercast
1:35 PM75.0 °F66.2 °F74 %30.22 in10.0 miSouth (170°)12.7 mph17.3 mphOvercast
1:55 PM75.9 °F66.0 °F71 %30.22 in10.0 miSSE (160°)9.2 mphOvercast
2:15 PM75.7 °F66.0 °F72 %30.21 in10.0 miSouth (170°)13.8 mphOvercast
2:35 PM75.9 °F65.8 °F71 %30.20 in10.0 miSouth (180°)12.7 mphOvercast
2:55 PM76.5 °F66.4 °F71 %30.19 in10.0 miSSE (150°)11.5 mphOvercast
3:15 PM75.6 °F66.4 °F73 %30.19 in10.0 miSouth (170°)5.8 mphOvercast
3:35 PM76.3 °F66.9 °F73 %30.18 in10.0 miSSE (160°)10.4 mphOvercast
3:55 PM75.2 °F66.6 °F74 %30.18 in10.0 miSSE (150°)9.2 mphOvercast
4:15 PM75.4 °F67.1 °F75 %30.17 in10.0 miCalmOvercast
4:35 PM74.5 °F67.1 °F78 %30.17 in10.0 miSE (140°)10.4 mphOvercast
4:55 PM73.6 °F66.7 °F79 %30.17 in10.0 miCalmOvercast
5:15 PM73.4 °F66.6 °F79 %30.16 in10.0 miCalmOvercast
5:35 PM73.6 °F67.1 °F80 %30.16 in10.0 miCalmOvercast
5:55 PM74.3 °F67.3 °F79 %30.16 in10.0 miCalmOvercast
6:15 PM73.8 °F66.7 °F79 %30.15 in10.0 miSE (140°)4.6 mphOvercast
6:35 PM73.9 °F66.9 °F79 %30.15 in10.0 miSSE (150°)3.5 mphOvercast
6:55 PM73.9 °F67.1 °F79 %30.16 in10.0 miCalmOvercast
7:15 PM73.4 °F67.5 °F82 %30.16 in10.0 miCalmOvercast
7:35 PM72.7 °F67.5 °F84 %30.16 in10.0 miCalmOvercast
7:55 PM72.3 °F67.6 °F85 %30.17 in10.0 miCalmOvercast
8:15 PM72.0 °F68.0 °F87 %30.17 in10.0 miESE (120°)5.8 mphOvercast
8:35 PM71.2 °F67.5 °F88 %30.17 in10.0 miCalmOvercast
8:55 PM70.7 °F67.3 °F89 %30.17 in10.0 miESE (120°)4.6 mphMostly Cloudy
9:15 PM70.0 °F67.5 °F92 %30.18 in10.0 miCalmScattered Clouds
9:35 PM69.8 °F67.5 °F92 %30.17 in10.0 miCalmMostly Cloudy
9:55 PM69.8 °F67.3 °F92 %30.17 in10.0 miCalmScattered Clouds
10:15 PM69.3 °F67.3 °F93 %30.16 in7.0 miCalmScattered Clouds
10:35 PM69.8 °F67.8 °F93 %30.16 in7.0 miESE (120°)3.5 mphMostly Cloudy
10:55 PM69.6 °F67.8 °F94 %30.16 in7.0 miCalmOvercast
11:15 PM70.2 °F68.2 °F93 %30.15 in7.0 miSE (140°)8.1 mphOvercast
11:35 PM70.7 °F68.2 °F92 %30.14 in7.0 miSSE (150°)8.1 mphOvercast
11:55 PM70.7 °F68.4 °F92 %30.15 in10.0 miSSE (150°)8.1 mphOvercast
Hourly data recorded from KORG, located miles away from Mauriceville, Texas







STORIES FROM OUR PARTNERS